• în România
  • Lista ţărilor
  • Pe 7 zile
  • Temperatura apei
  • Hartă satelitară
  • Meteo pe hartă
  • Widget-uri
  • user-avatar
    Intrare

    Meteo pe oră la Córdoba

    Astăzi, 28 Martie, Marţi

    Timp Temperatura Precipitaţii Vânt Presiune Umiditate
    00:00 +24°C° 0,6 mm 1 m/s 725 mmHg 90%
    01:00 +23°C° 0,6 mm 1 m/s 725 mmHg 91%
    02:00 +23°C° 0 mm 1 m/s 725 mmHg 93%
    03:00 +22°C° 0,5 mm 1 m/s 725 mmHg 94%
    04:00 +22°C° 0,5 mm 1 m/s 725 mmHg 94%
    05:00 +22°C° 0,5 mm 1 m/s 725 mmHg 95%
    06:00 +21°C° 0,5 mm 2 m/s 725 mmHg 93%
    07:00 +23°C° 0,5 mm 2 m/s 725 mmHg 91%
    08:00 +23°C° 0,5 mm 2 m/s 726 mmHg 88%
    09:00 +25°C° 1 mm 3 m/s 726 mmHg 81%
    10:00 +27°C° 1 mm 4 m/s 726 mmHg 73%
    11:00 +28°C° 1 mm 5 m/s 726 mmHg 66%
    12:00 +29°C° 1,3 mm 5 m/s 726 mmHg 63%
    13:00 +29°C° 1,3 mm 5 m/s 725 mmHg 61%
    14:00 +30°C° 1,3 mm 6 m/s 725 mmHg 58%
    15:00 +30°C° 0,6 mm 5 m/s 724 mmHg 58%
    16:00 +30°C° 0,6 mm 5 m/s 724 mmHg 57%
    17:00 +30°C° 0,6 mm 5 m/s 724 mmHg 57%
    18:00 +28°C° 0,1 mm 4 m/s 724 mmHg 60%
    19:00 +27°C° 0,1 mm 4 m/s 724 mmHg 64%
    20:00 +26°C° 0,1 mm 3 m/s 724 mmHg 67%
    21:00 +25°C° 0,1 mm 3 m/s 725 mmHg 67%
    22:00 +25°C° 0,1 mm 3 m/s 725 mmHg 67%
    23:00 +25°C° 0,1 mm 4 m/s 725 mmHg 67%

    Mâine, 29 Martie, Miercuri

    Timp Temperatura Precipitaţii Vânt Presiune Umiditate
    00:00 +24°C° 0 mm 3 m/s 725 mmHg 71%
    01:00 +22°C° 0 mm 3 m/s 725 mmHg 75%
    02:00 +21°C° 0 mm 2 m/s 724 mmHg 79%
    03:00 +20°C° 0 mm 2 m/s 724 mmHg 81%
    04:00 +20°C° 0 mm 2 m/s 724 mmHg 83%
    05:00 +20°C° 0 mm 2 m/s 724 mmHg 85%
    06:00 +20°C° 0 mm 2 m/s 724 mmHg 81%
    07:00 +21°C° 0 mm 3 m/s 724 mmHg 78%
    08:00 +22°C° 0 mm 3 m/s 724 mmHg 74%
    09:00 +25°C° 0 mm 4 m/s 724 mmHg 67%
    10:00 +27°C° 0 mm 5 m/s 724 mmHg 60%
    11:00 +29°C° 0 mm 6 m/s 724 mmHg 53%
    12:00 +29°C° 0,1 mm 6 m/s 723 mmHg 53%
    13:00 +29°C° 0,1 mm 6 m/s 723 mmHg 53%
    14:00 +30°C° 0,1 mm 6 m/s 722 mmHg 53%
    15:00 +30°C° 0 mm 6 m/s 721 mmHg 53%
    16:00 +30°C° 0 mm 6 m/s 721 mmHg 52%
    17:00 +30°C° 0 mm 6 m/s 720 mmHg 52%
    18:00 +28°C° 0,2 mm 5 m/s 720 mmHg 59%
    19:00 +26°C° 0,2 mm 4 m/s 720 mmHg 66%
    20:00 +25°C° 0,2 mm 3 m/s 720 mmHg 72%
    21:00 +25°C° 0,2 mm 3 m/s 721 mmHg 75%
    22:00 +24°C° 0,2 mm 2 m/s 721 mmHg 77%
    23:00 +24°C° 0,2 mm 2 m/s 721 mmHg 80%

    Poimâine, 30 Martie, Joi

    Timp Temperatura Precipitaţii Vânt Presiune Umiditate
    00:00 +23°C° 0,2 mm 1 m/s 721 mmHg 81%
    01:00 +23°C° 0,2 mm 1 m/s 721 mmHg 83%
    02:00 +23°C° 0,2 mm 1 m/s 721 mmHg 85%
    03:00 +22°C° 0 mm 1 m/s 721 mmHg 85%
    04:00 +22°C° 0 mm 1 m/s 721 mmHg 85%
    05:00 +22°C° 0 mm 1 m/s 721 mmHg 85%
    06:00 +22°C° 0 mm 1 m/s 721 mmHg 83%
    07:00 +23°C° 0 mm 2 m/s 722 mmHg 81%
    08:00 +23°C° 0 mm 2 m/s 722 mmHg 79%
    09:00 +24°C° 0,3 mm 2 m/s 722 mmHg 76%
    10:00 +25°C° 0,3 mm 3 m/s 723 mmHg 73%
    11:00 +25°C° 0,3 mm 3 m/s 723 mmHg 71%
    12:00 +26°C° 0,5 mm 4 m/s 723 mmHg 68%
    13:00 +27°C° 0,5 mm 4 m/s 722 mmHg 65%
    14:00 +28°C° 0,5 mm 4 m/s 722 mmHg 63%
    15:00 +28°C° 0,2 mm 4 m/s 722 mmHg 64%
    16:00 +27°C° 0,2 mm 4 m/s 721 mmHg 66%
    17:00 +27°C° 0,2 mm 4 m/s 721 mmHg 67%
    18:00 +26°C° 1 mm 3 m/s 721 mmHg 75%
    19:00 +24°C° 1 mm 3 m/s 722 mmHg 82%
    20:00 +23°C° 1 mm 2 m/s 722 mmHg 90%
    21:00 +23°C° 0,9 mm 2 m/s 722 mmHg 91%
    22:00 +23°C° 0,9 mm 2 m/s 723 mmHg 92%
    23:00 +23°C° 0,9 mm 1 m/s 723 mmHg 93%

    31 Martie, Vineri

    Timp Temperatura Precipitaţii Vânt Presiune Umiditate
    00:00 +23°C° 0,5 mm 2 m/s 723 mmHg 92%
    01:00 +23°C° 0,5 mm 2 m/s 723 mmHg 92%
    02:00 +23°C° 0,5 mm 2 m/s 723 mmHg 91%
    03:00 +23°C° 0,1 mm 2 m/s 723 mmHg 91%
    04:00 +21°C° 0,1 mm 2 m/s 723 mmHg 91%
    05:00 +22°C° 0,1 mm 1 m/s 723 mmHg 91%
    06:00 +21°C° 0,1 mm 2 m/s 723 mmHg 90%
    07:00 +23°C° 0,1 mm 2 m/s 724 mmHg 90%
    08:00 +23°C° 0,1 mm 2 m/s 724 mmHg 89%
    09:00 +24°C° 0,2 mm 2 m/s 725 mmHg 81%
    10:00 +25°C° 0,2 mm 3 m/s 725 mmHg 74%
    11:00 +27°C° 0,2 mm 4 m/s 725 mmHg 66%
    12:00 +27°C° 0,3 mm 4 m/s 725 mmHg 63%
    13:00 +28°C° 0,3 mm 4 m/s 724 mmHg 61%
    14:00 +28°C° 0,3 mm 4 m/s 724 mmHg 58%
    15:00 +28°C° 0,2 mm 3 m/s 724 mmHg 59%
    16:00 +27°C° 0,2 mm 3 m/s 724 mmHg 60%
    17:00 +27°C° 0,2 mm 3 m/s 723 mmHg 61%
    18:00 +26°C° 0,2 mm 3 m/s 724 mmHg 65%
    19:00 +25°C° 0,2 mm 2 m/s 724 mmHg 70%
    20:00 +24°C° 0,2 mm 2 m/s 724 mmHg 75%
    21:00 +24°C° 0,1 mm 2 m/s 725 mmHg 75%
    22:00 +24°C° 0,1 mm 2 m/s 725 mmHg 75%
    23:00 +24°C° 0,1 mm 2 m/s 725 mmHg 76%

    1 Aprilie, Sâmbătă

    Timp Temperatura Precipitaţii Vânt Presiune Umiditate
    00:00 +23°C° 0,1 mm 2 m/s 725 mmHg 77%
    01:00 +23°C° 0,1 mm 1 m/s 725 mmHg 78%
    02:00 +23°C° 0,1 mm 1 m/s 724 mmHg 80%
    03:00 +23°C° 0 mm 1 m/s 724 mmHg 80%
    04:00 +23°C° 0 mm 1 m/s 724 mmHg 81%
    05:00 +22°C° 0 mm 1 m/s 724 mmHg 81%
    06:00 +21°C° 0,2 mm 2 m/s 724 mmHg 81%
    07:00 +21°C° 0,2 mm 2 m/s 725 mmHg 81%
    08:00 +21°C° 0,2 mm 2 m/s 725 mmHg 81%
    09:00 +24°C° 0,2 mm 3 m/s 725 mmHg 75%
    10:00 +25°C° 0,2 mm 4 m/s 725 mmHg 68%
    11:00 +26°C° 0,2 mm 5 m/s 725 mmHg 61%
    12:00 +28°C° 0,1 mm 5 m/s 725 mmHg 57%
    13:00 +29°C° 0,1 mm 5 m/s 724 mmHg 53%
    14:00 +30°C° 0,1 mm 5 m/s 724 mmHg 49%
    15:00 +30°C° 0 mm 5 m/s 723 mmHg 51%
    16:00 +29°C° 0 mm 5 m/s 723 mmHg 52%
    17:00 +29°C° 0 mm 4 m/s 723 mmHg 53%
    18:00 +28°C° 0 mm 4 m/s 723 mmHg 56%
    19:00 +27°C° 0 mm 3 m/s 723 mmHg 59%
    20:00 +25°C° 0 mm 3 m/s 723 mmHg 63%
    21:00 +25°C° 0 mm 3 m/s 723 mmHg 64%
    22:00 +25°C° 0 mm 3 m/s 723 mmHg 65%
    23:00 +24°C° 0 mm 3 m/s 723 mmHg 67%

    2 Aprilie, Duminică

    Timp Temperatura Precipitaţii Vânt Presiune Umiditate
    00:00 +24°C° 0,1 mm 3 m/s 723 mmHg 67%
    01:00 +24°C° 0,1 mm 3 m/s 722 mmHg 68%
    02:00 +24°C° 0,1 mm 3 m/s 722 mmHg 68%
    03:00 +22°C° 0,2 mm 3 m/s 722 mmHg 71%
    04:00 +22°C° 0,2 mm 3 m/s 722 mmHg 73%
    05:00 +22°C° 0,2 mm 3 m/s 722 mmHg 75%
    06:00 +21°C° 0,3 mm 3 m/s 722 mmHg 78%
    07:00 +21°C° 0,3 mm 4 m/s 722 mmHg 80%
    08:00 +21°C° 0,3 mm 4 m/s 723 mmHg 83%
    09:00 +21°C° 0,2 mm 5 m/s 723 mmHg 81%
    10:00 +22°C° 0,2 mm 5 m/s 722 mmHg 79%
    11:00 +22°C° 0,2 mm 6 m/s 722 mmHg 78%
    12:00 +23°C° 0,2 mm 6 m/s 722 mmHg 75%
    13:00 +24°C° 0,2 mm 6 m/s 722 mmHg 72%
    14:00 +24°C° 0,2 mm 7 m/s 721 mmHg 69%
    15:00 +24°C° 0 mm 6 m/s 721 mmHg 70%
    16:00 +24°C° 0 mm 6 m/s 721 mmHg 71%
    17:00 +23°C° 0 mm 6 m/s 721 mmHg 72%
    18:00 +22°C° 0 mm 5 m/s 722 mmHg 78%
    19:00 +20°C° 0 mm 4 m/s 722 mmHg 85%
    20:00 +19°C° 0 mm 3 m/s 722 mmHg 92%
    21:00 +19°C° 0 mm 2 m/s 723 mmHg 92%
    22:00 +19°C° 0 mm 2 m/s 723 mmHg 91%
    23:00 +18°C° 0 mm 2 m/s 723 mmHg 91%
    Arată mai mult